DAL323 KLAX-KDEN

Flight info

Callsign DAL323
Flight time 1h 38m
Altitude 41000
Route ORCKA5 LAS J146 DICEE BUMMP SSKII4
Aircraft A359/H-SDE2E3GHIJ3J4J5LM1ORWXY/LB1D1

Departure

Time 2026-05-04 01:15
Airport Los Angeles International Airport (KLAX)

Arrival

Time 2026-05-04 02:54
Airport Denver International Airport (KDEN)
Time Latitude Longitude Altitude Speed Heading
2026-05-03 23:53 33.94540 -118.41009 99 ft 0 kts 263°
2026-05-03 23:58 33.94540 -118.41008 99 ft 0 kts 263°
2026-05-04 00:09 33.94540 -118.41007 99 ft 0 kts 263°
2026-05-04 00:10 33.94541 -118.41007 99 ft 0 kts 263°
2026-05-04 00:19 33.94541 -118.41006 99 ft 0 kts 263°
2026-05-04 00:36 33.94541 -118.41000 100 ft 3 kts 263°
2026-05-04 00:37 33.94544 -118.40974 97 ft 1 kts 263°
2026-05-04 00:37 33.94545 -118.40948 100 ft 3 kts 284°
2026-05-04 00:37 33.94535 -118.40924 98 ft 3 kts 318°
2026-05-04 00:37 33.94515 -118.40909 99 ft 3 kts 336°
2026-05-04 00:38 33.94519 -118.40912 99 ft 3 kts 326°
2026-05-04 00:38 33.94532 -118.40915 100 ft 0 kts 354°
2026-05-04 00:54 33.94531 -118.40915 99 ft 0 kts 354°
2026-05-04 01:08 33.94530 -118.40915 99 ft 0 kts 354°
2026-05-04 01:10 33.94533 -118.40915 99 ft 3 kts 354°
2026-05-04 01:10 33.94578 -118.40910 100 ft 9 kts 10°
2026-05-04 01:10 33.94647 -118.40903 100 ft 11 kts 360°
2026-05-04 01:11 33.94715 -118.40910 101 ft 10 kts
2026-05-04 01:11 33.94788 -118.40890 103 ft 12 kts 19°
2026-05-04 01:11 33.94841 -118.40815 102 ft 13 kts 79°
2026-05-04 01:11 33.94853 -118.40699 101 ft 16 kts 83°
2026-05-04 01:12 33.94868 -118.40552 103 ft 19 kts 83°
2026-05-04 01:12 33.94886 -118.40380 100 ft 22 kts 83°
2026-05-04 01:12 33.94906 -118.40186 103 ft 25 kts 82°
2026-05-04 01:12 33.94922 -118.40030 99 ft 10 kts 84°
2026-05-04 01:13 33.94927 -118.39978 99 ft 0 kts 83°
2026-05-04 01:13 33.94934 -118.39952 101 ft 6 kts 65°
2026-05-04 01:13 33.94943 -118.39939 101 ft 0 kts 46°
2026-05-04 01:14 33.94984 -118.39916 102 ft 11 kts 12°
2026-05-04 01:14 33.95038 -118.39945 102 ft 8 kts 294°
2026-05-04 01:14 33.95035 -118.40016 103 ft 13 kts 264°
2026-05-04 01:15 33.95002 -118.40345 104 ft 75 kts 263°
2026-05-04 01:15 33.94907 -118.41250 105 ft 140 kts 263°
2026-05-04 01:15 33.94790 -118.42453 803 ft 139 kts 264°
2026-05-04 01:15 33.94675 -118.43613 1534 ft 146 kts 262°
2026-05-04 01:16 33.94548 -118.44943 1831 ft 176 kts 263°
2026-05-04 01:16 33.94402 -118.46537 2115 ft 208 kts 264°
2026-05-04 01:16 33.94239 -118.48381 2576 ft 230 kts 264°
2026-05-04 01:16 33.94066 -118.50338 3362 ft 240 kts 264°
2026-05-04 01:17 33.93878 -118.52366 4195 ft 244 kts 263°
2026-05-04 01:17 33.93696 -118.54344 5375 ft 231 kts 263°
2026-05-04 01:17 33.93470 -118.56238 6428 ft 229 kts 256°
2026-05-04 01:17 33.92755 -118.57942 7305 ft 230 kts 237°
2026-05-04 01:18 33.92111 -118.58955 7917 ft 230 kts 230°
2026-05-04 01:18 33.90862 -118.60167 8881 ft 234 kts 208°
2026-05-04 01:18 33.89273 -118.60603 9856 ft 240 kts 180°
2026-05-04 01:18 33.87684 -118.59946 10756 ft 250 kts 148°
2026-05-04 01:19 33.86580 -118.58282 11581 ft 266 kts 116°
2026-05-04 01:19 33.86392 -118.56039 12354 ft 280 kts 82°
2026-05-04 01:19 33.87206 -118.53880 12925 ft 296 kts 55°
2026-05-04 01:19 33.88505 -118.51826 13282 ft 320 kts 53°
2026-05-04 01:20 33.89855 -118.49581 13601 ft 343 kts 57°
2026-05-04 01:20 33.91209 -118.47112 13932 ft 364 kts 59°
2026-05-04 01:20 33.92589 -118.44458 14235 ft 384 kts 59°
2026-05-04 01:20 33.94046 -118.41681 14594 ft 400 kts 56°
2026-05-04 01:21 33.95664 -118.38905 15128 ft 410 kts 55°
2026-05-04 01:21 33.97327 -118.36066 15715 ft 419 kts 55°
2026-05-04 01:21 33.99010 -118.33150 16271 ft 428 kts 55°
2026-05-04 01:21 34.00716 -118.30169 16878 ft 436 kts 54°
2026-05-04 01:22 34.02450 -118.27135 17505 ft 443 kts 54°
2026-05-04 01:22 34.04207 -118.24045 18185 ft 448 kts 54°
2026-05-04 01:22 34.05968 -118.20938 18795 ft 453 kts 54°
2026-05-04 01:22 34.07761 -118.17770 19294 ft 460 kts 54°
2026-05-04 01:23 34.09580 -118.14557 19823 ft 467 kts 54°
2026-05-04 01:23 34.11418 -118.11303 20346 ft 473 kts 54°
2026-05-04 01:23 34.13288 -118.08001 20881 ft 479 kts 54°
2026-05-04 01:23 34.15177 -118.04657 21421 ft 485 kts 54°
2026-05-04 01:24 34.17082 -118.01269 21972 ft 490 kts 54°
2026-05-04 01:24 34.19008 -117.97840 22540 ft 496 kts 54°
2026-05-04 01:24 34.20960 -117.94366 23073 ft 503 kts 54°
2026-05-04 01:24 34.22938 -117.90843 23651 ft 509 kts 54°
2026-05-04 01:25 34.24932 -117.87285 24129 ft 514 kts 53°
2026-05-04 01:25 34.26941 -117.83702 24665 ft 518 kts 53°
2026-05-04 01:25 34.28972 -117.80075 25172 ft 523 kts 53°
2026-05-04 01:25 34.31017 -117.76422 25707 ft 527 kts 53°
2026-05-04 01:26 34.33072 -117.72742 26231 ft 530 kts 53°
2026-05-04 01:26 34.35146 -117.69028 26700 ft 535 kts 53°
2026-05-04 01:26 34.37288 -117.65330 27150 ft 539 kts 50°
2026-05-04 01:26 34.39505 -117.61663 27646 ft 542 kts 50°
2026-05-04 01:27 34.41746 -117.57952 28093 ft 547 kts 50°
2026-05-04 01:27 34.43994 -117.54208 28555 ft 551 kts 50°
2026-05-04 01:27 34.46244 -117.50444 29168 ft 553 kts 50°
2026-05-04 01:27 34.48506 -117.46649 29647 ft 556 kts 50°
2026-05-04 01:28 34.50767 -117.42848 30214 ft 557 kts 50°
2026-05-04 01:28 34.53041 -117.39022 30527 ft 562 kts 50°
2026-05-04 01:28 34.55337 -117.35156 30762 ft 569 kts 50°
2026-05-04 01:28 34.57653 -117.31248 31057 ft 573 kts 50°
2026-05-04 01:29 34.59961 -117.27350 31323 ft 578 kts 50°
2026-05-04 01:29 34.62347 -117.23314 31573 ft 583 kts 50°
2026-05-04 01:29 34.64688 -117.19351 31825 ft 588 kts 50°
2026-05-04 01:29 34.67028 -117.15384 31986 ft 592 kts 50°
2026-05-04 01:30 34.69415 -117.11330 32317 ft 595 kts 50°
2026-05-04 01:30 34.71812 -117.07258 32533 ft 599 kts 50°
2026-05-04 01:30 34.73880 -117.03740 32758 ft 602 kts 50°
2026-05-04 01:30 34.76195 -116.99798 33110 ft 603 kts 50°
2026-05-04 01:31 34.78609 -116.95681 33412 ft 605 kts 49°
2026-05-04 01:31 34.81044 -116.91526 33683 ft 608 kts 49°
2026-05-04 01:31 34.83481 -116.87362 34038 ft 608 kts 50°
2026-05-04 01:31 34.85918 -116.83187 34651 ft 600 kts 50°
2026-05-04 01:32 34.88324 -116.79060 35179 ft 596 kts 50°
2026-05-04 01:32 34.90729 -116.74946 35513 ft 595 kts 50°
2026-05-04 01:32 34.93321 -116.71049 35803 ft 590 kts 42°
2026-05-04 01:32 34.96086 -116.67363 36126 ft 588 kts 41°
2026-05-04 01:33 34.98871 -116.63710 36455 ft 587 kts 41°
2026-05-04 01:33 35.01650 -116.60061 36772 ft 587 kts 41°
2026-05-04 01:33 35.04424 -116.56410 37100 ft 586 kts 41°
2026-05-04 01:33 35.07184 -116.52769 37569 ft 582 kts 41°
2026-05-04 01:34 35.09924 -116.49146 38028 ft 578 kts 41°
2026-05-04 01:34 35.12652 -116.45539 38281 ft 579 kts 41°
2026-05-04 01:34 35.15373 -116.41938 38499 ft 579 kts 42°
2026-05-04 01:34 35.18096 -116.38329 38797 ft 577 kts 43°
2026-05-04 01:35 35.20785 -116.34757 39243 ft 571 kts 43°
2026-05-04 01:35 35.23426 -116.31247 39596 ft 567 kts 43°
2026-05-04 01:35 35.25903 -116.27954 39816 ft 566 kts 43°
2026-05-04 01:35 35.28506 -116.24490 40028 ft 565 kts 43°
2026-05-04 01:36 35.31137 -116.20984 40250 ft 563 kts 43°
2026-05-04 01:36 35.33774 -116.17466 40440 ft 562 kts 43°
2026-05-04 01:36 35.36409 -116.13948 40651 ft 561 kts 44°
2026-05-04 01:37 35.41552 -116.07071 40754 ft 562 kts 44°
2026-05-04 01:37 35.46825 -116.00004 40759 ft 561 kts 44°
2026-05-04 01:38 35.52081 -115.92946 40765 ft 561 kts 44°
2026-05-04 01:38 35.57307 -115.85913 40768 ft 561 kts 44°
2026-05-04 01:39 35.62558 -115.78832 40768 ft 561 kts 44°
2026-05-04 01:39 35.67698 -115.71826 40776 ft 561 kts 44°
2026-05-04 01:40 35.72892 -115.64658 40779 ft 561 kts 44°
2026-05-04 01:40 35.78099 -115.57473 40782 ft 562 kts 44°
2026-05-04 01:41 35.83297 -115.50291 40801 ft 562 kts 45°
2026-05-04 01:41 35.88495 -115.43095 40780 ft 562 kts 45°
2026-05-04 01:42 35.93448 -115.36224 40775 ft 562 kts 45°
2026-05-04 01:42 35.98640 -115.29007 40792 ft 563 kts 45°
2026-05-04 01:43 36.03834 -115.21772 40766 ft 563 kts 45°
2026-05-04 01:43 36.08476 -115.13961 40769 ft 569 kts 63°
2026-05-04 01:44 36.11533 -115.04944 40766 ft 570 kts 69°
2026-05-04 01:44 36.14303 -114.95758 40686 ft 569 kts 70°
2026-05-04 01:45 36.17052 -114.86589 40681 ft 568 kts 69°
2026-05-04 01:45 36.21236 -114.72861 40659 ft 568 kts 69°
2026-05-04 01:46 36.24036 -114.63713 40637 ft 568 kts 69°
2026-05-04 01:46 36.26829 -114.54555 40628 ft 568 kts 69°
2026-05-04 01:47 36.29594 -114.45451 40635 ft 569 kts 69°
2026-05-04 01:47 36.32372 -114.36270 40643 ft 569 kts 69°
2026-05-04 01:48 36.35150 -114.27062 40641 ft 570 kts 69°
2026-05-04 01:48 36.37924 -114.17833 40646 ft 571 kts 69°
2026-05-04 01:49 36.40692 -114.08599 40661 ft 571 kts 69°
2026-05-04 01:49 36.43452 -113.99362 40684 ft 571 kts 69°
2026-05-04 01:50 36.46206 -113.90106 40683 ft 571 kts 69°
2026-05-04 01:50 36.48955 -113.80846 40697 ft 571 kts 69°
2026-05-04 01:51 36.51693 -113.71583 40710 ft 571 kts 69°
2026-05-04 01:51 36.54425 -113.62314 40710 ft 571 kts 69°
2026-05-04 01:52 36.57150 -113.53040 40724 ft 571 kts 69°
2026-05-04 01:52 36.59870 -113.43750 40736 ft 571 kts 69°
2026-05-04 01:53 36.62579 -113.34468 40749 ft 571 kts 69°
2026-05-04 01:53 36.65284 -113.25186 40749 ft 571 kts 69°
2026-05-04 01:54 36.67970 -113.15889 40818 ft 571 kts 69°
2026-05-04 01:54 36.70650 -113.06582 40872 ft 571 kts 69°
2026-05-04 01:55 36.73322 -112.97283 40904 ft 570 kts 69°
2026-05-04 01:55 36.75989 -112.87975 40905 ft 570 kts 69°
2026-05-04 01:56 36.78649 -112.78658 40900 ft 570 kts 69°
2026-05-04 01:56 36.81301 -112.69336 40882 ft 570 kts 69°
2026-05-04 01:57 36.83945 -112.60014 40851 ft 570 kts 69°
2026-05-04 01:57 36.86582 -112.50685 40870 ft 570 kts 69°
2026-05-04 01:58 36.89212 -112.41349 40893 ft 570 kts 69°
2026-05-04 01:58 36.91834 -112.31996 40918 ft 571 kts 69°
2026-05-04 01:59 36.94454 -112.22627 40915 ft 571 kts 69°
2026-05-04 01:59 36.97065 -112.13255 40921 ft 571 kts 69°
2026-05-04 02:00 36.99655 -112.03939 40904 ft 571 kts 69°
2026-05-04 02:00 37.02256 -111.94549 40910 ft 572 kts 69°
2026-05-04 02:01 37.04854 -111.85141 40899 ft 571 kts 69°
2026-05-04 02:01 37.07442 -111.75734 40887 ft 573 kts 69°
2026-05-04 02:02 37.10037 -111.66271 40891 ft 576 kts 69°
2026-05-04 02:02 37.12634 -111.56768 40873 ft 576 kts 69°
2026-05-04 02:03 37.15222 -111.47257 40894 ft 576 kts 69°
2026-05-04 02:03 37.17800 -111.37746 40901 ft 576 kts 69°
2026-05-04 02:04 37.20374 -111.28222 40866 ft 576 kts 69°
2026-05-04 02:04 37.23380 -111.18945 40856 ft 572 kts 60°
2026-05-04 02:05 37.26305 -111.11501 40868 ft 572 kts 59°
2026-05-04 02:05 37.28879 -111.05008 40861 ft 572 kts 60°
2026-05-04 02:06 37.32424 -110.96069 40854 ft 572 kts 59°
2026-05-04 02:06 37.35962 -110.87129 40855 ft 571 kts 59°
2026-05-04 02:07 37.39495 -110.78176 40850 ft 571 kts 60°
2026-05-04 02:07 37.43027 -110.69204 40856 ft 572 kts 60°
2026-05-04 02:08 37.46545 -110.60239 40850 ft 572 kts 60°
2026-05-04 02:08 37.50058 -110.51263 40851 ft 571 kts 60°
2026-05-04 02:09 37.53563 -110.42281 40867 ft 571 kts 59°
2026-05-04 02:09 37.57058 -110.33297 40870 ft 570 kts 60°
2026-05-04 02:10 37.60536 -110.24333 40868 ft 569 kts 60°
2026-05-04 02:10 37.64009 -110.15355 40878 ft 569 kts 60°
2026-05-04 02:11 37.67470 -110.06381 40899 ft 569 kts 60°
2026-05-04 02:11 37.70923 -109.97405 40897 ft 568 kts 60°
2026-05-04 02:12 37.74365 -109.88430 40905 ft 569 kts 60°
2026-05-04 02:12 37.77787 -109.79480 40925 ft 568 kts 60°
2026-05-04 02:13 37.81194 -109.70547 40898 ft 568 kts 60°
2026-05-04 02:13 37.84605 -109.61574 40952 ft 567 kts 60°
2026-05-04 02:14 37.88010 -109.52592 40932 ft 566 kts 60°
2026-05-04 02:14 37.91409 -109.43598 40917 ft 566 kts 60°
2026-05-04 02:15 37.94790 -109.34626 40912 ft 564 kts 60°
2026-05-04 02:15 37.98141 -109.25707 40909 ft 562 kts 60°
2026-05-04 02:16 38.01492 -109.16764 40909 ft 561 kts 60°
2026-05-04 02:16 38.04830 -109.07828 40912 ft 560 kts 60°
2026-05-04 02:17 38.08151 -108.98910 40906 ft 558 kts 60°
2026-05-04 02:17 38.11488 -108.90015 40905 ft 557 kts 59°
2026-05-04 02:18 38.14975 -108.81229 40891 ft 557 kts 59°
2026-05-04 02:18 38.18448 -108.72433 40891 ft 556 kts 59°
2026-05-04 02:19 38.21894 -108.63639 40904 ft 555 kts 59°
2026-05-04 02:19 38.25329 -108.54844 40917 ft 555 kts 59°
2026-05-04 02:20 38.28753 -108.46045 40909 ft 555 kts 59°
2026-05-04 02:20 38.32169 -108.37242 40911 ft 554 kts 59°
2026-05-04 02:21 38.35574 -108.28441 40930 ft 554 kts 59°
2026-05-04 02:21 38.38964 -108.19652 40948 ft 552 kts 59°
2026-05-04 02:22 38.42340 -108.10878 40979 ft 551 kts 59°
2026-05-04 02:22 38.45709 -108.02095 41005 ft 551 kts 60°
2026-05-04 02:23 38.49058 -107.93292 41018 ft 552 kts 60°
2026-05-04 02:23 38.52381 -107.84468 41018 ft 552 kts 60°
2026-05-04 02:24 38.54044 -107.80051 40898 ft 552 kts 60°
2026-05-04 02:24 38.55704 -107.75633 40898 ft 552 kts 60°
2026-05-04 02:24 38.59019 -107.66798 40893 ft 550 kts 60°
2026-05-04 02:25 38.62320 -107.57980 40917 ft 550 kts 60°
2026-05-04 02:25 38.65583 -107.49236 40917 ft 550 kts 60°
2026-05-04 02:26 38.68913 -107.40439 40654 ft 549 kts 60°
2026-05-04 02:26 38.70581 -107.36039 40423 ft 549 kts 60°
2026-05-04 02:26 38.72248 -107.31635 40197 ft 550 kts 60°
2026-05-04 02:27 38.73912 -107.27227 39961 ft 550 kts 60°
2026-05-04 02:27 38.75574 -107.22816 39723 ft 549 kts 60°
2026-05-04 02:27 38.77233 -107.18406 39507 ft 549 kts 60°
2026-05-04 02:27 38.78887 -107.14006 39277 ft 550 kts 60°
2026-05-04 02:28 38.80548 -107.09582 39033 ft 550 kts 60°
2026-05-04 02:28 38.82201 -107.05167 38643 ft 548 kts 60°
2026-05-04 02:28 38.83849 -107.00758 37943 ft 548 kts 60°
2026-05-04 02:28 38.85490 -106.96361 37265 ft 546 kts 60°
2026-05-04 02:29 38.87127 -106.91971 36564 ft 544 kts 60°
2026-05-04 02:29 38.88753 -106.87605 35862 ft 543 kts 61°
2026-05-04 02:29 38.90380 -106.83230 35172 ft 542 kts 61°
2026-05-04 02:29 38.92004 -106.78855 34428 ft 542 kts 62°
2026-05-04 02:30 38.93622 -106.74493 33658 ft 541 kts 62°
2026-05-04 02:30 38.95228 -106.70152 33156 ft 533 kts 62°
2026-05-04 02:30 38.96794 -106.65906 33018 ft 518 kts 62°
2026-05-04 02:30 38.98325 -106.61754 32508 ft 511 kts 62°
2026-05-04 02:31 38.99817 -106.57707 31982 ft 492 kts 62°
2026-05-04 02:31 39.01260 -106.53793 31552 ft 480 kts 62°
2026-05-04 02:31 39.02676 -106.49923 31093 ft 476 kts 62°
2026-05-04 02:31 39.04078 -106.46083 30643 ft 472 kts 62°
2026-05-04 02:32 39.05468 -106.42277 30194 ft 468 kts 62°
2026-05-04 02:32 39.06842 -106.38512 29711 ft 463 kts 62°
2026-05-04 02:32 39.08201 -106.34778 29261 ft 458 kts 62°
2026-05-04 02:32 39.09545 -106.31083 28808 ft 453 kts 62°
2026-05-04 02:33 39.10854 -106.27477 28388 ft 448 kts 62°
2026-05-04 02:33 39.12168 -106.23856 27945 ft 444 kts 63°
2026-05-04 02:33 39.13470 -106.20265 27468 ft 441 kts 63°
2026-05-04 02:33 39.14757 -106.16713 27008 ft 437 kts 63°
2026-05-04 02:34 39.16039 -106.13174 26546 ft 433 kts 63°
2026-05-04 02:34 39.17300 -106.09672 26093 ft 429 kts 63°
2026-05-04 02:34 39.18549 -106.06192 25610 ft 426 kts 63°
2026-05-04 02:34 39.19788 -106.02736 25137 ft 423 kts 63°
2026-05-04 02:35 39.21018 -105.99305 24676 ft 421 kts 63°
2026-05-04 02:35 39.22245 -105.95880 24187 ft 418 kts 63°
2026-05-04 02:35 39.23454 -105.92499 23856 ft 412 kts 63°
2026-05-04 02:35 39.24652 -105.89163 23474 ft 408 kts 63°
2026-05-04 02:36 39.25835 -105.85888 22982 ft 405 kts 63°
2026-05-04 02:36 39.27019 -105.82602 22509 ft 402 kts 63°
2026-05-04 02:36 39.28193 -105.79339 22051 ft 399 kts 63°
2026-05-04 02:36 39.29356 -105.76103 21570 ft 396 kts 63°
2026-05-04 02:37 39.30510 -105.72889 21121 ft 393 kts 63°
2026-05-04 02:37 39.31656 -105.69693 20765 ft 388 kts 63°
2026-05-04 02:37 39.32772 -105.66578 20558 ft 379 kts 63°
2026-05-04 02:37 39.33894 -105.63504 20123 ft 377 kts 63°
2026-05-04 02:38 39.35015 -105.60444 19692 ft 376 kts 63°
2026-05-04 02:38 39.36130 -105.57392 19268 ft 375 kts 63°
2026-05-04 02:38 39.37238 -105.54357 18836 ft 374 kts 63°
2026-05-04 02:38 39.38339 -105.51334 18560 ft 367 kts 63°
2026-05-04 02:39 39.39404 -105.48403 18429 ft 354 kts 63°
2026-05-04 02:39 39.40436 -105.45561 18157 ft 348 kts 63°
2026-05-04 02:39 39.41381 -105.42691 17755 ft 345 kts 72°
2026-05-04 02:39 39.41731 -105.39647 17409 ft 342 kts 88°
2026-05-04 02:40 39.41759 -105.36581 17048 ft 340 kts 90°
2026-05-04 02:40 39.41757 -105.33572 16678 ft 337 kts 90°
2026-05-04 02:40 39.41763 -105.30552 16349 ft 335 kts 89°
2026-05-04 02:40 39.41772 -105.27511 16004 ft 333 kts 89°
2026-05-04 02:41 39.41784 -105.24567 15642 ft 330 kts 89°
2026-05-04 02:41 39.41797 -105.21584 15299 ft 327 kts 88°
2026-05-04 02:41 39.41810 -105.18684 14959 ft 325 kts 88°
2026-05-04 02:41 39.41822 -105.15731 14607 ft 324 kts 88°
2026-05-04 02:42 39.41834 -105.12865 14317 ft 320 kts 88°
2026-05-04 02:42 39.41844 -105.10077 14193 ft 300 kts 88°
2026-05-04 02:42 39.41851 -105.07470 14088 ft 279 kts 88°
2026-05-04 02:42 39.41859 -105.05004 13960 ft 270 kts 88°
2026-05-04 02:43 39.41868 -105.02611 13778 ft 265 kts 88°
2026-05-04 02:43 39.41877 -105.00224 13503 ft 264 kts 88°
2026-05-04 02:43 39.41885 -104.97854 13326 ft 263 kts 88°
2026-05-04 02:43 39.41893 -104.95505 13078 ft 261 kts 88°
2026-05-04 02:44 39.42001 -104.93170 12841 ft 259 kts 82°
2026-05-04 02:44 39.42203 -104.90823 12586 ft 265 kts 82°
2026-05-04 02:44 39.42418 -104.88443 12330 ft 267 kts 82°
2026-05-04 02:44 39.42630 -104.86064 12090 ft 265 kts 82°
2026-05-04 02:45 39.42844 -104.83706 11831 ft 263 kts 82°
2026-05-04 02:45 39.43054 -104.81355 11557 ft 263 kts 82°
2026-05-04 02:45 39.43261 -104.79009 11295 ft 261 kts 82°
2026-05-04 02:45 39.43671 -104.76746 11038 ft 257 kts 63°
2026-05-04 02:46 39.44757 -104.74988 10994 ft 249 kts 36°
2026-05-04 02:46 39.46126 -104.73612 11010 ft 250 kts 34°
2026-05-04 02:46 39.47488 -104.72289 11009 ft 251 kts 34°
2026-05-04 02:46 39.48880 -104.70931 11012 ft 251 kts 34°
2026-05-04 02:47 39.50273 -104.69565 11011 ft 251 kts 34°
2026-05-04 02:47 39.51661 -104.68201 11010 ft 251 kts 34°
2026-05-04 02:47 39.53097 -104.66930 11003 ft 249 kts 24°
2026-05-04 02:47 39.54739 -104.66366 11012 ft 243 kts 359°
2026-05-04 02:48 39.56425 -104.66312 10887 ft 242 kts 355°
2026-05-04 02:48 39.58108 -104.66315 10535 ft 242 kts 355°
2026-05-04 02:48 39.59785 -104.66324 10229 ft 239 kts 356°
2026-05-04 02:48 39.61435 -104.66309 9816 ft 234 kts 356°
2026-05-04 02:49 39.62994 -104.66285 9665 ft 214 kts 356°
2026-05-04 02:49 39.64437 -104.66263 9513 ft 202 kts 356°
2026-05-04 02:49 39.65811 -104.66246 9316 ft 194 kts 356°
2026-05-04 02:49 39.67132 -104.66233 9048 ft 191 kts 356°
2026-05-04 02:50 39.68426 -104.66219 8906 ft 180 kts 356°
2026-05-04 02:50 39.69636 -104.66206 8797 ft 168 kts 356°
2026-05-04 02:50 39.70766 -104.66193 8637 ft 158 kts 355°
2026-05-04 02:50 39.71876 -104.66183 8177 ft 165 kts 356°
2026-05-04 02:51 39.73090 -104.66187 7510 ft 182 kts 356°
2026-05-04 02:51 39.74347 -104.66171 7115 ft 179 kts 358°
2026-05-04 02:51 39.75546 -104.66139 6927 ft 165 kts 358°
2026-05-04 02:51 39.76660 -104.66127 6711 ft 154 kts 357°
2026-05-04 02:52 39.77690 -104.66115 6473 ft 145 kts 357°
2026-05-04 02:52 39.78675 -104.66130 6321 ft 140 kts 356°
2026-05-04 02:52 39.79677 -104.66153 6121 ft 146 kts 360°
2026-05-04 02:52 39.80716 -104.66084 5959 ft 152 kts 357°
2026-05-04 02:53 39.81791 -104.66068 5760 ft 153 kts 355°
2026-05-04 02:53 39.82874 -104.66051 5504 ft 156 kts 355°
2026-05-04 02:53 39.83856 -104.66046 5432 ft 117 kts
2026-05-04 02:53 39.84315 -104.66038 5416 ft 82 kts
2026-05-04 02:54 39.84654 -104.66049 5406 ft 37 kts 351°
2026-05-04 02:54 39.84835 -104.66104 5399 ft 26 kts 335°
2026-05-04 02:54 39.84934 -104.66175 5403 ft 0 kts 330°
2026-05-04 02:55 39.84934 -104.66176 5400 ft 1 kts 330°
2026-05-04 02:55 39.84949 -104.66186 5402 ft 5 kts 330°
2026-05-04 02:55 39.84992 -104.66217 5404 ft 9 kts 331°
2026-05-04 02:56 39.85067 -104.66243 5401 ft 13 kts 358°
2026-05-04 02:56 39.85170 -104.66241 5399 ft 17 kts
2026-05-04 02:56 39.85296 -104.66239 5392 ft 19 kts
2026-05-04 02:56 39.85428 -104.66238 5397 ft 15 kts 360°
2026-05-04 02:57 39.85539 -104.66238 5391 ft 12 kts 360°
2026-05-04 02:57 39.85555 -104.66241 5389 ft 6 kts 345°
2026-05-04 02:57 39.85584 -104.66303 5388 ft 11 kts 281°
2026-05-04 02:57 39.85585 -104.66425 5392 ft 16 kts 269°
2026-05-04 02:58 39.85585 -104.66591 5388 ft 19 kts 270°
2026-05-04 02:58 39.85587 -104.66767 5388 ft 20 kts 271°
2026-05-04 02:58 39.85589 -104.66944 5382 ft 20 kts 270°
2026-05-04 02:58 39.85589 -104.67122 5382 ft 20 kts 270°
2026-05-04 02:59 39.85573 -104.67277 5382 ft 14 kts 245°
2026-05-04 02:59 39.85532 -104.67392 5385 ft 14 kts 254°
2026-05-04 02:59 39.85528 -104.67521 5389 ft 15 kts 271°
2026-05-04 02:59 39.85529 -104.67656 5389 ft 15 kts 270°
2026-05-04 03:00 39.85529 -104.67695 5389 ft 0 kts 270°
2026-05-04 03:00 39.85529 -104.67734 5389 ft 7 kts 268°
2026-05-04 03:00 39.85514 -104.67752 5385 ft 2 kts 205°
2026-05-04 03:00 39.85509 -104.67755 5387 ft 0 kts 208°
2026-05-04 03:01 39.85486 -104.67770 5387 ft 7 kts 202°
2026-05-04 03:01 39.85456 -104.67777 5387 ft 0 kts 179°